Location: Calberlah
(52.4230°N, 10.6240°E)
Time: 10:06:20
(UTC+00:00)

In-Cosmos 22 - Pass Details

Date: 19 May 2025
Orbit: 783 x 875 km, 81.2° (Epoch: 23 June)

Event Time Altitude Azimuth Distance (km) Brightness Sun altitude
Exits shadow 23:31:02 28° 167° (SSE) 1,580 5.1 -17.5°
Maximum altitude 23:34:03 61° 97° (E) 984 4.5 -17.5°
Drops below altitude 10° 23:39:45 10° 18° (NNE) 2,540 7.9 -17.4°
Sets 23:42:13 0° 16° (NNE) 3,482 9.1 -17.3°
